Weather in Novoaleksandrovskiy

Russia / Kaluga Oblast     54°20′30″N   34°04′21″E
temp.,
°C
wind,
m/s
gust,
m/s
humid.,
%
clouds,
%
prec.,
mm/h
press.,
hPa
HPBL,
m
11 april, sun
sun1100:00+3ssw311762 0.0 1025226
03:00+2ssw311805 0.0 1026209
06:00+1ssw27832 0.0 1027115
09:00+7ssw35620 0.0 1028276
12:00+12ssw35470 0.0 1029830
15:00+14ssw33410 0.0 10291254
18:00+13s11520 0.0 102934
21:00+8se22670 0.0 103012
12 april, mon
mon1200:00+6ese22730 0.0 103138
03:00+5ese22770 0.0 103228
06:00+3e3579100 0.0 103187
09:00+8e41161100 0.0 1030488
12:00+11e5842100 0.0 1028815
15:00+10ese4768100 0.1 1027711
18:00+9e2686100 1.4 1025258
21:00+8e2793100 1.4 1025157
13 april, tue
tue1300:00+7e2595100 0.0 1024103
03:00+8e2294100 0.0 102326
06:00+7se2295100 0.0 102320
09:00+9ne1289100 0.1 102246
12:00+12ese3679100 0.0 1021234
15:00+16sse3762100 0.0 1020764
18:00+15sse2571100 0.1 1019120
21:00+12se2686100 0.3 1020122
14 april, wed
wed1400:00+11se2585100 0.0 1019107
03:00+10sse2590100 0.0 1019105
06:00+10sse279386 0.0 1019147
09:00+12se2585100 0.0 1019238
12:00+17sse4856100 0.1 10181404
15:00+16se2560100 0.5 1017700
18:00+14ese2366100 0.4 101660
21:00+11e2275100 0.4 101723
15 april, thu
thu1500:00+11sse2684100 0.1 1017122
03:00+10e1191100 0.8 101611
06:00+9ese2289100 0.0 101628
09:00+12e3576100 0.0 1016259
12:00+16ene3461100 0.0 1015800
15:00+16ene3456100 0.0 10141250
18:00+14ne41062100 0.1 1014502
21:00+10nne71479100 0.1 1015620